Regional Weather Roundup
Issued by NWS State College, PA

Home | Current Version | Previous Version | Graphics & Text | Print | Product List | Glossary Off
Versions: 1 2 3 4 5 6 7 8 9 10 11 12 13 14 15 16 17 18 19 20 21 22 23 24 25 26 27 28 29 30 31 32 33 34 35 36 37 38 39 40 41 42 43 44 45 46 47 48 49 50

000
ASUS41 KCTP 250110
RWRCTP

REGIONAL WEATHER ROUNDUP
NATIONAL WEATHER SERVICE STATE COLLEGE PA
900 PM EDT FRI OCT 24 2014

Note: "fair" indicates few or no clouds below 12,000 feet with no
significant weather and/or obstructions to visibility.

* = STATION THAT DOES NOT REPORT PRECIPITATION /E.G. RAIN...SNOW...ETC/
    THUNDER OR FOG.

PAZ002>004-007>009-013>016-020>023-029>032-250200-
WESTERN PENNSYLVANIA

CITY           SKY/WX    TMP DP  RH WIND       PRES   REMARKS
ERIE           CLOUDY    52  44  74 S6        29.99S
MEADVILLE      MOCLDY    48  42  80 CALM      30.00S
FRANKLIN*      CLEAR     48  36  61 W5        30.01S
NEW CASTLE       N/A     49  38  65 CALM      30.02R
BEAVER COUNTY  CLEAR     52  37  58 W3        30.01S
BUTLER*        CLEAR     46  34  61 CALM      30.03R
PITTSBURGH INT PTCLDY    50  38  63 CALM      30.01S
PITTSBURGH     CLEAR     53  34  48 SW6       30.00S
INDIANA*       PTCLDY    45  39  81 CALM      30.04S
LATROBE        PTCLDY    45  37  76 SW7       30.01F
WASHINGTON CO* CLEAR     39  36  87 CALM      30.03S
$$

PAZ004>006-010>012-017>019-024>028-033>037-041-042-045-046-049>053-250200-
CENTRAL PENNSYLVANIA

CITY           SKY/WX    TMP DP  RH WIND       PRES   REMARKS
BRADFORD       CLEAR     44  35  70 NW6       29.98R
DUBOIS         CLEAR     48  36  63 W3        29.98R
CLEARFIELD     CLEAR     49  37  63 W6        29.98R
JOHNSTOWN      CLEAR     47  35  63 W10       29.99S
ALTOONA        CLEAR     48  38  68 W3        29.99R
STATE COLLEGE  CLEAR     52  37  58 W7        29.96R
WILLIAMSPORT   PTCLDY    54  31  41 W7        29.91R
SELINSGROVE    MOCLDY    54  38  54 NW6       29.92R
FT INDIANTOWN  MOCLDY    60  37  41 W10       29.90R
CAPITAL CITY   MOCLDY    56  38  50 W7        29.92R
HARRISBURG     MOCLDY    56  39  53 NW12      29.91R
YORK           MOCLDY    54  37  52 W6        29.92R
$$

PAZ038>040-043-044-047-048-054-055-060>062-067>071-250200-
EASTERN PENNSYLVANIA

CITY           SKY/WX    TMP DP  RH WIND       PRES   REMARKS
SCRANTON       PTCLDY    55  36  48 NW6       29.90R
MOUNT POCONO   PTCLDY    51  35  54 NW13      29.87R
ALLENTOWN      MOCLDY    58  40  51 NW5       29.87R
QUAKERTOWN*    MOCLDY    55  45  67 CALM      29.88R
READING        MOCLDY    58  37  45 W8        29.88R
LANCASTER      MOCLDY    54  37  52 W9        29.90R
COATESVILLE    MOCLDY    55  37  50 W10       29.89R
POTTSTOWN      PTCLDY    57  35  43 NW5       29.88R
BLUE BELL      PTCLDY    59  41  51 CALM      29.85R
DOYLESTOWN     MOCLDY    57  42  57 CALM      29.86R
WILLOW GROVE   NOT AVBL
NORTH PHILA    PTCLDY    57  43  59 W5        29.87R
PHILADELPHIA   MOCLDY    61  38  42 W6        29.87R
$$



USA.gov is the U.S. government's official web portal to all federal, state and local government web resources and services.